K5EBQ Weather Reports


Display with metric or nautical units.
time (UTC)temp
F
wind
direction
speed
MPH
gust
MPH
rain 1hr
in
rain 24hr
in
rain mn
in
humidity
%
barometer
mb
20260508153031 70 24 0.0 0.0 0.00 0.00 0.00 86 1010.6
20260508151522 70 53 0.0 0.0 0.00 0.00 0.00 85 1010.8
20260508150023 70 86 0.0 0.0 0.00 0.00 0.00 84 1010.7
20260508144527 70 34 0.0 0.0 0.00 0.00 0.00 85 1010.7
20260508143023 69 65 0.0 0.0 0.00 0.00 0.00 87 1010.8
20260508141521 69 259 0.0 0.0 0.00 0.00 0.00 88 1010.8
20260508140023 69 59 0.0 0.0 0.00 0.00 0.00 88 1010.9
20260508134518 69 77 0.0 0.0 0.00 0.00 0.00 88 1010.5
20260508133018 69 94 0.0 0.0 0.00 0.00 0.00 89 1010.5
20260508131518 69 98 0.0 0.0 0.00 0.00 0.00 88 1010.7
20260508130030 69 76 0.0 0.0 0.00 0.00 0.00 86 1010.6
20260508124516 69 38 0.0 0.0 0.00 0.00 0.00 87 1010.6
20260508123017 69 355 0.0 0.0 0.00 0.00 0.00 87 1010.4
20260508121515 68 55 0.0 0.0 0.00 0.00 0.00 87 1010.5
20260508120015 69 44 0.0 0.0 0.00 0.00 0.00 88 1011.1
20260508114513 69 49 0.0 0.0 0.00 0.00 0.00 87 1011.1
20260508113017 69 49 0.0 0.0 0.00 0.00 0.00 87 1011.2
20260508111512 68 84 0.0 0.0 0.00 0.00 0.00 87 1010.6
20260508110010 69 119 0.0 0.0 0.00 0.00 0.00 85 1010.3
20260508104508 69 9 0.0 0.0 0.00 0.00 0.00 85 1010.2
20260508103011 69 5 0.0 0.0 0.00 0.00 0.00 85 1010.6
20260508101507 69 78 0.0 0.0 0.00 0.00 0.00 84 1010.7
20260508100007 69 61 0.0 0.0 0.00 0.00 0.00 83 1010.3
20260508094505 69 67 0.0 0.0 0.00 0.00 0.00 82 1010.5
20260508093006 69 5 0.0 0.0 0.00 0.00 0.00 82 1010.8
20260508091509 69 136 0.0 0.0 0.00 0.00 0.00 81 1009.9
20260508090008 70 84 0.0 0.0 0.00 0.00 0.00 80 1009.8
20260508084600 70 63 0.0 0.0 0.00 0.00 0.00 80 1010.4
20260508083104 70 54 0.0 0.0 0.00 0.00 0.00 80 1010.5
20260508081604 71 38 0.0 0.0 0.00 0.00 0.00 79 1010.6
20260508080056 71 38 0.0 0.0 0.00 0.00 0.00 79 1010.4
20260508074553 71 37 0.0 0.0 0.00 0.00 0.00 79 1010.8
20260508073052 71 46 0.0 0.0 0.00 0.00 0.00 78 1010.9
20260508071551 72 73 0.0 0.0 0.00 0.00 0.00 77 1010.9
20260508070051 72 73 0.0 0.0 0.00 0.00 0.00 78 1010.9
20260508064550 72 73 0.0 0.0 0.00 0.00 0.00 77 1011.0
20260508063100 71 73 0.0 0.0 0.00 0.00 0.00 77 1010.9
20260508061548 71 58 0.0 0.0 0.00 0.00 0.00 77 1010.8
20260508060047 71 57 0.0 0.0 0.00 0.00 0.00 77 1010.9
20260508054545 71 44 0.0 0.0 0.00 0.00 0.00 77 1011.1
20260508053046 72 44 0.0 0.0 0.00 0.00 0.00 76 1010.9
20260508051543 72 63 0.0 0.0 0.00 0.00 0.00 76 1010.8
20260508050043 72 62 0.0 0.0 0.00 0.00 0.00 75 1010.9
20260508044539 72 62 0.0 0.0 0.00 0.00 0.00 75 1011.0
20260508043053 72 62 0.0 0.0 0.00 0.00 0.00 74 1011.4
20260508041547 72 59 0.0 0.0 0.00 0.00 0.00 73 1011.2
20260508040040 72 28 0.0 0.0 0.00 0.00 0.00 72 1011.1
20260508034537 73 82 0.0 0.0 0.00 0.00 0.00 71 1010.4
20260508033038 73 53 0.0 0.0 0.00 0.00 0.00 71 1011.1
20260508031536 73 360 0.0 0.0 0.00 0.00 0.00 70 1011.5
20260508030041 73 355 0.0 0.0 0.00 0.00 0.00 70 1011.6
20260508024534 74 355 0.0 0.0 0.00 0.00 0.00 70 1011.8
20260508023034 74 355 0.0 0.0 0.00 0.00 0.00 70 1011.2
20260508021540 75 273 0.0 0.0 0.00 0.00 0.00 71 1011.1
20260508020044 75 273 0.0 0.0 0.00 0.00 0.00 71 1011.3
20260508014533 75 273 0.0 0.0 0.00 0.00 0.00 70 1011.1
20260508013034 75 273 0.0 0.0 0.00 0.00 0.00 70 1011.1
20260508011532 76 279 0.0 0.0 0.00 0.00 0.00 70 1011.1
20260508010034 76 120 0.0 0.0 0.00 0.01 0.00 70 1011.2
20260508004532 77 28 0.0 0.0 0.00 0.01 0.00 68 1011.2
20260508003031 77 350 0.0 0.0 0.00 0.01 0.00 68 1011.1
20260508001556 77 360 0.0 0.0 0.00 0.01 0.00 69 1011.2
20260508000029 77 65 0.0 0.0 0.00 0.01 0.00 69 1011.3
20260507234533 78 326 0.0 0.0 0.00 0.01 0.00 68 1011.4
20260507233028 78 15 0.0 0.0 0.00 0.01 0.00 68 1011.2
20260507231534 79 310 0.0 0.0 0.00 0.01 0.00 67 1011.0
20260507230028 79 36 0.0 0.0 0.00 0.01 0.00 67 1010.7
20260507224535 79 83 0.0 0.0 0.00 0.01 0.00 69 1010.6
20260507223026 79 67 0.0 0.0 0.00 0.01 0.00 68 1010.4
20260507221525 79 45 0.0 0.0 0.00 0.01 0.00 68 1010.5
20260507220037 79 360 0.0 0.0 0.00 0.01 0.00 69 1010.8
20260507214533 80 55 0.0 0.0 0.00 0.01 0.00 68 1011.0
20260507213024 80 22 0.0 0.0 0.00 0.01 0.00 68 1011.1
20260507211524 80 71 0.0 0.0 0.00 0.01 0.00 67 1011.1
20260507210023 80 54 0.0 0.0 0.00 0.01 0.00 67 1011.3
20260507204519 79 32 0.0 0.0 0.00 0.01 0.00 69 1011.5
20260507203022 79 21 0.0 0.0 0.00 0.01 0.00 68 1011.6
20260507201519 79 46 0.0 0.0 0.00 0.01 0.00 68 1011.7
20260507200019 78 27 0.0 0.0 0.00 0.01 0.00 70 1011.9
20260507194510 76 53 0.0 0.0 0.00 0.01 0.00 71 1011.9
20260507193008 76 23 0.0 0.0 0.00 0.01 0.00 72 1012.3
20260507191505 75 340 0.0 0.0 0.00 0.01 0.00 72 1012.7
20260507190101 76 347 0.0 0.0 0.00 0.01 0.00 71 1012.9
20260507184604 74 9 0.0 0.0 0.00 0.01 0.00 73 1013.0
20260507183054 74 32 0.0 0.0 0.00 0.01 0.00 74 1013.1
20260507181601 74 32 0.0 0.0 0.00 0.01 0.00 74 1013.1
20260507180051 74 13 0.0 0.0 0.00 0.01 0.00 73 1013.4
20260507174553 73 345 0.0 0.0 0.00 0.01 0.00 74 1013.5
20260507173046 72 321 0.0 0.0 0.00 0.01 0.00 75 1013.8
20260507171543 71 10 0.0 0.0 0.00 0.01 0.00 76 1014.0
20260507170046 70 325 0.0 0.0 0.00 0.01 0.00 77 1014.1
20260507164540 69 14 0.0 0.0 0.00 0.01 0.00 78 1014.0
20260507163040 69 69 0.0 0.0 0.00 0.01 0.00 78 1013.9
20260507161540 68 344 0.0 0.0 0.00 0.01 0.00 79 1013.6
20260507160038 67 34 0.0 0.0 0.00 0.01 0.00 81 1013.3
20260507154537 66 13 0.0 0.0 0.00 0.01 0.00 82 1013.5